{"data":{"norad_id":61851,"epoch":"2026-09-21T05:26:02.486688Z","epoch_age_seconds":126086,"freshness":"FRESH","line1":"1 61851U 24202G   26264.22641767  .00000712  00000+0  35390-4 0  9999","line2":"2 61851  43.0039 202.3527 0001094 264.8531  95.2196 15.27579788105362","mean_motion":15.27579788,"eccentricity":0.0001094,"inclination_deg":43.0039,"raan_deg":202.3527,"arg_perigee_deg":264.8531,"mean_anomaly_deg":95.2196,"bstar":3.539e-5,"rev_number":10536,"period_min":94.266761796144,"perigee_km":482.29911701564,"apogee_km":483.80034467235,"semimajor_km":6861.186730844,"source":"CELESTRAK","updated_at":"2026-09-22T09:00:49.440902Z"}}